Wind_Speed
89 90 90 90 91 91 91 91 91 91 91 91 91 91 91 91 90 90 89 89 88 88 87 86 86 85 84 84 83 83 82 82 82 82 82 82 82 82 82 82 82 82 82 82 82 82 81 81 81 81 81 80 80 79 79 79 79 79 79 79 80 80 81 83 84 86 88 90 92 93 94 95 98 101 104 105 107 107 106 104 103 102 100 99 96 93
89 89 90 90 90 91 91 91 91 91 91 91 91 91 91 90 90 90 89 89 88 88 87 86 86 85 85 84 84 83 82 82 82 81 81 82 82 82 82 82 83 83 83 82 82 81 81 81 81 80 80 80 79 79 78 78 78 78 78 78 78 79 80 81 83 85 88 90 92 94 95 97 100 102 105 106 107 107 106 105 104 102 101 100 98 95
89 89 90 90 90 90 91 91 91 91 91 91 91 91 90 90 90 90 89 89 88 88 87 86 86 85 85 84 84 83 83 82 82 82 82 82 82 82 83 83 83 83 83 82 82 81 80 80 80 79 79 79 79 78 78 77 77 77 77 77 77 77 77 78 80 83 86 89 91 94 97 99 102 104 105 106 106 106 106 105 103 103 102 101 99 97
88 89 90 90 90 90 91 91 91 91 91 91 91 90 90 90 90 90 89 89 88 87 87 86 86 85 85 85 84 84 83 83 82 82 82 82 82 82 83 83 83 83 83 83 82 81 80 79 78 78 78 78 78 77 77 76 76 75 75 75 75 75 75 75 76 79 82 86 90 94 97 101 103 105 106 106 106 105 105 104 103 102 101 101 100 99
89 89 90 90 90 90 91 91 91 91 91 91 91 90 90 90 90 90 89 89 88 88 87 86 86 85 85 85 84 84 84 83 83 82 82 82 82 82 83 83 83 83 83 83 82 81 80 79 78 77 77 77 77 76 76 75 75 74 74 73 73 72 72 72 73 74 78 83 88 93 97 101 104 105 106 106 105 105 104 103 102 101 101 101 101 100
90 90 90 90 90 91 91 91 91 91 91 91 91 91 90 90 90 90 89 89 88 88 87 87 86 86 85 85 85 84 84 84 83 83 83 83 82 83 83 83 83 83 83 82 82 81 80 79 78 77 76 76 76 75 75 74 74 73 72 72 71 70 70 69 69 71 74 79 85 92 97 102 105 106 106 105 105 104 103 102 101 100 100 100 101 100
91 91 91 91 91 91 91 91 91 91 91 91 91 91 91 91 90 90 90 89 89 88 88 87 87 86 86 85 85 85 84 84 84 84 83 83 83 83 83 83 83 83 83 82 82 81 80 79 78 77 76 76 75 75 74 73 73 72 71 70 69 68 67 67 67 68 70 76 83 90 97 102 105 106 106 105 105 103 102 101 100 100 100 100 100 100
92 92 92 92 92 92 92 92 92 92 91 91 91 91 91 91 91 90 90 90 89 89 88 87 87 87 86 86 85 85 85 84 84 84 84 83 83 83 83 83 83 82 82 82 82 81 79 79 78 77 76 75 75 74 73 73 72 71 70 69 68 67 66 65 65 66 68 73 81 89 97 102 105 107 107 106 105 103 102 101 100 99 99 100 100 100
93 93 93 93 93 93 93 93 93 92 92 92 91 91 91 91 91 91 91 90 90 89 89 88 87 87 87 86 86 85 85 85 85 84 84 84 84 83 83 83 83 82 82 82 81 80 79 78 78 78 77 76 75 74 73 72 71 70 69 69 67 66 65 64 63 64 66 71 79 88 97 103 106 107 107 106 105 104 102 101 100 99 99 99 100 100
96 95 95 95 94 94 94 94 93 93 93 92 92 92 92 91 91 91 91 91 91 90 89 88 88 88 87 87 86 86 85 85 85 85 85 85 84 84 84 83 83 82 82 82 81 80 79 78 78 78 77 76 75 74 73 72 71 70 69 68 67 66 64 63 63 63 65 69 77 86 96 102 106 108 108 107 106 104 103 101 100 99 99 99 99 99
98 98 97 97 96 96 95 95 95 94 93 93 93 93 92 92 92 92 92 91 91 91 90 89 89 88 88 87 87 86 86 86 86 86 85 85 85 85 84 84 83 83 83 82 82 81 79 79 78 78 78 77 75 74 73 72 71 70 69 68 67 66 64 63 62 62 64 67 74 84 94 102 107 109 109 108 107 106 104 103 102 101 100 100 100 100
100 100 99 99 98 97 97 96 96 95 95 94 94 94 93 93 93 92 92 92 92 91 91 90 90 89 89 88 87 87 86 86 86 86 86 86 86 86 85 85 84 83 83 83 82 81 80 79 78 79 78 78 76 75 74 72 71 71 70 69 67 66 65 63 62 62 63 66 72 82 92 101 108 111 112 111 109 108 106 105 104 103 102 102 102 102
102 101 101 101 100 99 99 98 97 97 96 96 95 95 95 94 94 93 93 93 93 92 92 92 91 90 90 89 89 88 87 87 87 87 86 87 87 87 86 86 85 84 84 84 83 82 80 79 79 79 79 78 78 76 74 73 72 71 70 69 68 66 65 64 63 62 63 66 71 79 89 99 108 113 115 114 113 111 109 108 106 105 104 104 104 104
103 103 103 102 102 101 101 100 99 99 98 98 97 97 96 95 95 94 94 94 94 93 93 93 92 92 91 90 90 89 88 88 88 87 87 87 87 87 87 87 86 85 85 85 84 83 81 80 79 79 79 79 78 77 76 74 73 72 71 70 68 67 66 65 64 64 64 66 70 77 86 96 106 113 117 118 117 115 113 112 110 109 108 107 107 107
104 104 104 104 103 103 102 102 101 101 100 99 99 98 97 97 96 96 96 95 95 95 94 94 94 93 93 92 91 90 90 89 89 88 88 88 88 88 88 87 87 86 86 85 85 84 83 81 80 79 79 79 79 78 77 76 74 73 71 70 69 68 67 66 65 65 65 66 69 74 82 92 102 111 117 120 121 119 118 116 115 114 112 112 111 111
105 105 105 105 105 104 104 103 102 102 101 101 100 100 99 98 98 97 97 97 96 96 95 95 95 95 94 93 93 92 91 90 90 89 88 88 88 88 88 88 88 87 87 86 86 85 84 82 81 80 79 79 79 79 78 77 76 75 73 71 70 69 68 67 66 66 66 67 69 73 79 87 96 106 115 120 123 124 122 121 119 118 118 117 116 115
106 106 106 106 105 105 105 104 103 103 102 102 101 101 100 100 99 99 98 98 97 97 97 96 96 96 95 95 94 93 92 91 91 90 89 89 89 88 88 88 88 88 88 87 87 86 85 84 83 81 80 80 79 79 79 79 78 77 75 73 71 70 69 69 68 68 68 69 70 73 77 83 91 100 109 118 123 126 126 125 123 122 121 121 120 120
107 107 106 106 106 106 105 105 104 104 103 103 102 102 101 101 100 100 99 99 98 98 98 97 97 96 96 96 95 94 93 92 92 91 90 90 89 89 88 88 88 89 88 88 88 87 86 85 84 83 82 81 80 79 79 79 79 78 77 75 73 71 70 70 70 70 70 70 71 73 77 81 87 95 103 112 120 125 128 128 127 126 125 124 124 123
108 108 107 107 107 107 106 106 105 105 104 104 103 103 102 102 101 101 100 100 99 99 98 98 98 97 97 96 96 95 94 93 93 92 91 91 90 89 89 88 88 89 89 89 89 88 88 87 86 85 84 82 81 80 80 80 79 79 79 78 76 74 72 71 71 71 71 72 73 74 77 81 85 91 98 106 114 121 126 129 130 129 128 127 126 125
110 109 108 108 107 107 107 107 106 105 105 104 104 103 103 103 102 101 101 101 100 99 99 98 98 98 97 97 96 95 95 94 94 94 93 92 91 91 90 89 89 89 89 89 90 89 89 88 88 87 86 84 83 82 81 80 80 80 80 79 78 76 74 73 72 72 73 73 74 75 77 80 84 89 95 102 109 116 122 127 130 131 130 129 128 127
111 110 110 109 108 108 108 108 107 106 106 105 104 104 104 103 103 102 102 101 101 100 100 99 99 99 98 97 97 96 95 95 95 95 94 94 93 92 91 90 90 90 90 90 90 90 90 90 89 89 88 87 85 84 82 82 81 81 81 80 80 79 77 75 74 74 74 75 75 77 78 81 84 88 93 99 105 112 118 123 127 130 131 130 129 128
112 112 111 110 109 109 109 109 108 108 107 106 106 105 105 104 104 103 103 102 101 101 100 100 100 99 99 98 98 97 96 96 96 96 96 95 95 94 93 92 91 91 91 91 90 90 90 90 90 90 89 89 87 86 84 83 82 82 81 81 81 81 79 78 76 75 75 76 77 78 79 81 84 87 91 96 101 108 114 120 125 128 131 131 131 130
114 113 112 111 111 110 110 110 109 109 108 108 107 107 106 105 105 104 104 103 103 102 102 101 101 100 100 99 99 98 97 97 97 97 97 97 97 96 95 94 93 93 92 92 91 91 91 91 91 91 91 90 89 88 87 85 84 83 83 82 82 82 81 80 79 77 77 77 78 79 80 82 84 87 91 95 99 104 109 115 121 126 129 131 132 132
115 115 114 113 112 111 111 111 110 110 109 109 109 108 108 107 106 106 105 104 104 103 103 102 102 101 101 101 100 100 99 99 98 98 98 98 98 98 97 96 95 95 94 94 93 92 91 91 91 91 91 91 91 90 89 88 86 85 84 83 83 83 82 82 81 80 79 78 79 80 81 83 85 87 90 94 98 102 106 111 117 123 127 131 133 134
117 116 115 114 113 112 112 112 111 111 111 110 110 110 109 108 108 107 107 106 105 105 104 104 104 103 103 102 102 102 101 100 99 99 99 100 100 99 99 98 97 97 97 96 95 94 93 93 92 92 91 91 91 91 91 90 89 87 86 85 84 84 83 83 83 82 81 81 80 81 82 83 85 87 90 93 97 101 104 108 113 118 124 128 132 134
118 117 116 115 115 114 113 113 112 112 112 112 111 111 111 110 109 109 108 108 107 107 106 106 106 105 105 104 104 103 103 102 101 101 101 101 101 101 100 100 99 99 99 98 97 96 95 95 94 93 92 92 91 91 91 91 90 89 88 87 86 85 85 84 84 84 83 83 83 83 83 84 85 87 89 92 96 99 103 107 110 114 119 124 129 133
119 118 117 117 116 115 114 114 114 113 113 113 113 113 112 112 111 111 110 110 109 109 108 108 108 107 106 106 105 105 105 104 103 103 103 102 103 102 102 102 101 101 101 100 100 99 98 97 96 95 94 93 92 91 91 91 91 91 90 89 88 87 86 85 85 85 85 85 85 85 85 85 86 87 89 91 94 98 101 105 109 112 115 119 124 128
119 119 118 117 117 116 116 115 115 114 114 114 114 114 113 113 113 113 112 112 111 110 110 110 110 109 108 108 107 107 106 106 106 105 104 104 104 104 104 103 102 102 102 102 102 101 100 99 98 97 96 94 93 92 92 91 91 91 91 90 89 89 88 87 86 86 86 86 87 87 87 87 87 88 89 91 93 96 99 103 107 110 113 116 119 123
119 118 118 118 117 117 116 116 115 115 115 115 115 115 115 114 114 114 114 113 112 112 112 112 112 111 110 110 109 109 108 108 107 107 106 106 106 106 105 104 104 104 104 103 103 103 102 102 101 99 98 96 95 94 93 92 91 91 91 91 90 90 89 89 88 88 87 88 88 88 89 89 90 90 91 92 93 95 98 101 104 108 111 114 117 120
118 118 118 117 117 117 116 116 116 116 115 115 116 116 115 115 115 115 115 114 114 114 114 114 113 113 112 112 111 110 110 110 109 108 107 108 108 108 107 106 106 105 105 104 104 104 104 103 102 101 100 98 97 95 94 93 92 91 91 90 90 90 90 90 90 89 89 89 90 90 90 91 91 92 92 93 94 95 97 99 101 105 108 112 115 118
118 117 117 117 116 116 116 116 115 115 115 115 116 116 116 116 116 116 116 115 115 115 115 115 114 114 114 113 112 112 112 111 110 109 108 109 109 109 108 107 107 106 106 105 105 104 104 104 103 102 101 99 98 97 95 94 93 92 91 91 90 91 91 91 91 91 91 91 91 92 92 92 93 93 94 95 96 97 98 99 101 103 105 108 111 115
117 116 116 116 115 115 115 115 115 114 115 115 115 115 116 116 116 116 116 116 116 115 115 115 115 115 114 114 114 113 113 112 111 110 109 109 109 109 109 108 108 107 107 106 105 105 105 104 104 103 101 100 99 97 96 95 94 93 92 91 91 91 91 91 92 92 92 93 93 93 93 94 94 95 95 96 97 98 99 100 101 102 104 106 108 111
116 115 115 115 114 114 114 113 113 113 114 114 114 115 115 115 115 116 116 116 116 115 115 115 115 115 115 114 114 114 113 112 111 110 110 110 109 109 109 109 108 108 107 107 106 106 105 105 104 103 102 100 99 98 97 96 95 94 93 92 92 91 92 91 92 92 93 94 94 95 95 95 96 96 97 97 98 99 100 101 102 103 105 106 108 109
114 114 114 114 113 113 113 112 112 112 112 112 113 113 114 114 114 115 115 115 115 115 115 115 115 114 114 114 114 113 113 113 112 111 110 109 109 109 109 109 108 108 107 107 107 106 106 105 104 103 102 101 99 98 97 96 95 94 94 93 92 92 92 92 92 92 93 94 95 96 96 97 97 97 98 99 99 100 101 102 103 104 105 107 108 109
113 113 112 112 112 111 111 111 111 110 111 111 111 112 112 113 113 113 114 114 114 114 114 114 114 114 113 113 113 113 113 112 112 111 110 109 109 109 108 108 108 108 107 107 106 106 105 105 104 104 103 102 100 99 98 96 95 95 94 94 93 93 93 93 93 93 93 94 95 96 97 97 98 99 99 100 100 101 102 103 104 105 106 107 108 110
112 111 111 110 110 110 109 109 109 109 109 109 110 110 111 111 112 112 112 113 113 113 113 113 113 113 113 112 112 112 112 112 111 110 110 109 109 108 108 108 107 107 106 106 106 105 105 104 104 103 103 102 101 100 98 97 96 95 94 94 94 94 94 94 94 94 94 94 95 96 97 98 99 99 100 101 101 102 103 104 105 106 107 108 109 110
110 110 109 109 108 108 107 107 107 107 107 108 108 109 109 110 110 110 111 111 112 112 112 112 112 112 112 112 111 111 111 111 110 110 109 109 108 108 107 107 107 106 105 105 105 104 104 103 103 102 102 102 101 100 99 98 97 95 95 95 95 95 95 95 95 95 95 96 96 97 97 98 99 100 101 101 102 103 104 105 105 106 107 108 109 110
109 108 108 107 106 106 106 106 106 106 106 106 107 107 108 108 108 109 109 110 110 111 111 111 111 111 111 111 111 111 110 110 110 109 109 108 108 107 107 107 106 106 105 104 104 103 103 102 102 101 101 101 101 100 99 99 97 97 96 96 95 95 95 96 96 96 96 97 97 98 98 99 99 100 101 102 102 103 104 105 106 107 108 109 110 111
107 107 106 105 105 104 104 104 104 104 105 105 105 106 106 106 107 108 108 108 109 109 110 110 110 110 110 110 110 110 110 109 109 109 108 108 108 107 107 106 106 106 105 104 104 103 102 102 101 101 101 100 100 99 99 99 98 98 97 97 96 96 96 96 97 97 97 98 98 99 99 100 100 101 102 103 103 104 105 106 107 107 108 109 110 111
106 105 105 104 103 103 103 103 103 103 103 104 104 104 105 105 106 106 107 107 108 108 109 109 109 109 109 109 109 109 109 109 109 108 108 108 107 107 106 106 106 105 105 104 103 103 102 102 101 101 100 100 99 99 99 98 98 98 98 98 98 98 98 98 97 98 98 98 99 99 100 101 101 102 103 104 104 105 106 107 107 108 109 110 111 112
104 103 103 102 101 101 101 101 102 102 102 102 102 103 103 104 104 105 105 106 106 107 107 108 108 108 108 108 108 108 108 108 108 108 107 107 107 106 106 105 105 105 104 104 103 103 102 101 101 101 100 100 100 99 99 98 98 98 98 98 99 99 100 99 99 99 99 99 99 100 100 101 102 103 104 105 105 106 107 107 108 109 109 110 111 112
102 101 101 100 100 100 100 100 100 101 101 101 101 102 102 102 103 103 103 104 104 105 106 106 106 107 107 107 107 107 107 107 107 107 106 106 106 105 105 105 104 104 104 103 103 102 102 102 101 101 101 100 100 99 99 99 99 99 99 99 100 100 100 101 101 101 101 101 101 101 102 102 103 104 104 105 106 106 107 108 108 109 110 111 112 113
99 99 98 98 98 98 98 99 99 99 99 100 100 100 100 101 101 101 102 102 103 103 104 104 104 105 105 105 106 106 106 106 106 106 105 105 105 104 104 104 104 103 103 102 102 102 102 102 101 101 101 101 100 100 100 100 100 99 99 100 100 100 101 102 102 102 102 102 103 103 103 104 104 105 105 106 106 107 107 108 109 109 110 111 112 113
97 96 96 96 96 96 96 97 97 98 98 98 98 99 99 99 99 100 100 101 101 102 102 103 103 103 104 104 104 104 105 105 105 104 104 104 104 103 103 103 103 103 102 102 102 102 102 101 101 101 101 101 100 100 100 100 100 100 100 100 100 101 101 102 103 103 104 104 104 105 105 106 106 106 107 107 108 108 109 109 109 110 111 111 112 113
94 94 94 94 94 94 95 95 96 96 96 97 97 97 97 97 98 98 99 99 100 100 101 101 101 101 102 102 103 103 103 103 103 103 103 103 103 102 102 102 102 102 102 101 101 101 101 101 101 101 101 101 101 101 101 101 101 101 101 101 101 101 102 103 103 103 104 105 106 106 107 107 107 108 108 109 110 110 110 111 111 112 112 113 114 114
92 92 92 92 92 92 93 93 94 94 95 95 95 95 96 96 96 97 97 98 98 99 99 99 100 100 100 101 101 101 101 102 102 102 102 102 102 102 101 101 101 101 101 101 101 101 101 101 101 101 101 101 101 101 101 101 101 101 101 102 102 102 102 103 103 104 104 105 106 107 107 108 108 109 110 111 111 111 112 112 113 113 114 115 115 116
90 90 90 90 90 90 91 91 92 92 93 93 94 94 94 94 95 95 96 97 97 97 98 98 98 99 99 100 100 100 100 100 101 101 101 101 101 101 101 101 101 101 101 100 101 101 101 101 101 101 101 100 101 101 101 101 101 102 102 102 102 102 103 103 104 104 105 105 106 107 107 108 109 110 111 112 112 113 113 114 114 114 115 116 116 117
88 88 88 88 88 88 89 89 90 91 91 92 92 92 93 93 93 94 95 95 96 96 96 97 97 97 98 98 98 99 99 99 99 100 100 100 100 100 100 100 100 100 100 100 100 100 100 100 100 100 100 100 101 101 101 102 102 102 102 103 103 103 103 104 104 104 105 105 106 106 107 108 109 110 111 112 113 114 114 115 115 116 116 117 117 118
86 86 86 86 86 87 87 88 88 89 89 90 90 91 91 92 92 93 93 94 94 95 95 95 96 96 97 97 97 97 98 98 98 98 99 99 99 99 99 99 99 99 99 99 99 99 100 100 100 100 100 100 101 101 101 102 102 102 102 103 103 103 104 104 104 104 105 105 105 106 107 107 108 109 110 111 113 114 115 116 116 117 117 118 119 119
85 85 85 85 85 85 86 86 86 87 87 88 89 89 90 90 91 91 92 92 93 93 94 94 95 95 95 96 96 96 96 97 97 97 97 98 98 98 98 98 98 98 98 98 98 99 99 99 99 100 100 100 100 101 101 102 102 102 102 103 103 103 104 104 104 104 105 105 105 106 106 107 107 108 109 110 111 113 114 115 116 117 118 118 119 119
84 83 83 83 84 84 84 84 85 85 86 86 87 88 88 89 89 90 90 91 91 92 92 93 93 93 94 94 94 94 95 95 95 96 96 96 97 97 97 97 97 97 97 97 97 98 98 98 99 99 100 100 100 101 101 102 102 102 102 103 103 103 104 104 104 104 104 105 105 105 106 106 107 107 108 109 110 111 112 114 115 116 117 117 118 119
Wind_Direction
245 246 246 246 246 246 246 247 247 247 248 248 248 249 249 250 250 251 251 252 252 253 253 254 254 255 255 255 256 256 256 257 258 258 259 259 259 260 260 261 261 261 262 262 262 263 263 264 264 265 265 265 265 265 265 264 264 264 263 263 262 261 260 258 257 255 253 251 248 244 241 238 237 236 237 237 237 238 238 239 240 241 242 242 242 243
245 246 246 246 246 247 247 247 247 248 248 248 249 249 250 250 251 251 252 252 253 253 254 254 255 255 255 256 256 256 257 257 258 258 259 259 260 260 261 261 261 262 262 262 263 263 264 264 265 265 265 265 265 265 265 264 264 264 263 262 262 261 259 258 257 255 253 250 247 243 239 236 235 235 236 237 237 238 238 239 240 241 242 242 242 243
245 245 246 246 247 247 247 248 248 248 248 249 249 249 250 250 251 251 252 252 253 253 254 254 255 255 256 256 257 257 257 257 258 258 258 259 260 260 261 261 262 262 262 263 263 263 264 264 265 266 266 266 266 266 265 265 264 264 263 263 262 261 260 259 257 256 253 250 246 241 237 234 233 234 235 236 236 237 238 239 240 241 241 242 242 242
245 245 246 246 246 247 247 248 248 248 249 249 249 250 250 251 251 252 252 253 253 254 254 255 255 256 256 257 257 257 257 258 258 258 258 259 259 260 261 261 262 262 263 263 263 264 264 264 265 266 266 267 267 266 266 266 265 265 264 263 263 262 261 260 259 257 254 250 245 240 235 232 231 232 233 234 235 236 237 238 239 240 241 241 242 242
245 245 245 246 246 247 247 248 248 249 249 249 250 250 251 251 251 252 252 253 253 254 254 254 255 255 256 256 257 257 258 258 258 258 258 259 259 260 261 261 262 263 263 264 264 264 264 265 265 266 266 267 267 267 267 267 266 266 265 264 264 263 262 262 261 259 255 250 243 238 233 230 230 230 232 233 234 235 236 237 239 240 241 241 241 241
245 245 245 245 246 246 247 247 248 249 249 249 250 250 251 251 252 252 252 253 253 254 254 254 255 255 256 256 257 257 258 258 258 259 259 259 260 260 261 262 262 263 263 264 264 265 265 265 265 266 266 267 268 268 268 268 268 267 267 266 265 264 264 263 262 260 255 249 242 235 231 229 228 229 230 232 233 234 236 237 238 239 240 241 241 241
245 245 245 245 246 246 247 247 248 248 249 249 250 250 251 251 252 252 253 253 253 254 254 255 255 255 256 256 257 257 258 258 258 259 259 260 260 261 261 262 263 263 264 264 265 265 266 266 266 266 267 267 268 268 268 269 269 268 268 267 267 266 265 265 263 260 255 248 240 234 230 227 227 228 229 230 232 233 235 236 237 238 239 240 241 241
245 245 245 246 246 246 246 247 247 248 248 249 249 250 251 251 252 252 253 253 253 254 254 255 255 255 256 256 257 257 258 258 259 259 260 260 261 261 262 262 263 264 264 265 265 266 266 267 267 267 267 267 268 268 269 269 269 269 269 268 268 267 267 266 264 261 255 247 240 233 229 227 226 227 228 229 231 233 234 235 236 237 238 239 240 241
246 246 246 246 246 246 246 247 247 247 248 248 249 250 250 251 252 252 253 253 254 254 254 255 255 255 256 256 257 257 258 259 259 260 260 261 261 262 262 263 263 264 265 265 266 266 267 267 268 268 268 268 268 269 269 269 270 270 270 269 269 268 267 267 265 262 256 248 240 233 228 226 225 226 227 229 230 232 233 234 235 236 237 239 240 240
246 246 246 246 246 247 247 247 247 247 248 248 249 249 250 251 251 252 253 253 254 254 254 255 255 256 256 256 257 258 258 259 260 260 261 261 262 262 263 263 264 264 265 265 266 266 267 268 268 269 269 269 269 269 270 270 270 270 270 270 269 269 268 267 266 263 257 249 241 234 229 226 225 225 226 228 230 231 232 233 234 235 236 238 239 240
247 247 247 247 247 247 247 247 248 248 248 248 249 249 250 250 251 252 252 253 254 254 254 255 255 256 256 257 257 258 258 259 260 261 261 262 262 263 263 263 264 264 265 265 266 266 267 268 269 269 269 269 269 270 270 270 271 271 270 270 270 269 268 267 266 264 259 251 243 236 230 227 225 225 226 227 229 231 232 233 234 235 236 236 237 238
247 247 247 247 247 247 248 248 248 248 248 249 249 249 250 250 251 251 252 253 253 254 254 255 255 256 256 257 257 257 258 259 260 261 261 262 263 263 263 264 264 264 265 265 266 266 267 267 268 269 270 270 270 270 270 271 271 271 271 271 270 269 269 268 266 264 260 253 245 237 232 228 226 225 225 226 228 230 231 233 234 234 235 236 237 238
247 247 248 248 248 248 248 248 249 249 249 249 249 249 250 250 251 251 252 253 253 254 254 255 255 256 256 256 257 257 258 258 259 260 261 262 263 263 264 264 264 264 265 265 266 266 266 267 268 269 270 271 271 271 271 271 271 271 271 271 270 270 269 268 266 264 260 254 247 240 234 230 227 226 225 226 228 229 231 232 233 234 235 236 237 238
248 248 248 248 248 248 248 249 249 249 249 249 250 250 250 251 251 251 252 252 253 254 254 255 255 256 256 256 257 257 257 258 259 259 260 261 262 263 263 264 264 264 265 266 266 266 266 267 268 269 270 271 271 272 272 271 271 271 271 271 271 270 269 267 265 263 260 256 249 243 237 232 229 228 227 227 228 229 231 232 233 234 235 236 237 238
248 248 248 248 249 249 249 249 249 249 250 250 250 250 251 251 251 252 252 252 253 254 254 255 255 256 256 256 257 257 257 258 258 259 259 260 261 262 263 264 264 264 265 265 266 266 267 267 268 269 270 271 272 272 272 272 272 271 271 271 271 270 269 267 265 263 260 257 252 246 240 235 232 230 228 228 228 229 231 232 233 234 235 236 237 238
247 248 248 249 249 249 249 249 250 250 250 250 251 251 251 251 251 252 252 252 253 253 254 255 255 256 256 256 257 257 257 257 258 258 259 259 260 261 262 263 264 264 265 265 266 266 267 267 268 268 269 270 271 272 272 273 272 272 271 271 270 270 269 267 265 262 260 257 254 249 243 238 234 232 230 230 230 230 231 233 234 235 236 237 238 239
247 248 248 249 249 249 250 250 250 250 250 251 251 251 251 252 252 252 252 253 253 254 254 254 255 256 256 256 257 257 257 257 258 258 258 259 259 260 261 263 264 264 265 265 265 266 267 267 267 268 269 269 270 271 272 273 273 272 271 271 270 269 268 267 265 262 260 258 255 251 247 242 238 234 232 231 231 231 232 233 234 236 237 238 239 240
247 248 248 248 249 249 250 250 250 250 251 251 251 252 252 252 252 252 253 253 253 254 254 254 255 255 256 256 257 257 257 257 258 258 258 258 259 259 260 261 263 264 265 265 266 266 267 267 267 268 268 269 269 270 271 272 272 272 272 271 270 269 268 266 264 262 260 258 255 252 249 245 241 238 235 234 233 233 233 234 235 236 237 238 239 240
247 247 248 248 249 249 250 250 250 251 251 251 251 252 252 252 253 253 253 253 253 254 254 254 255 255 256 256 257 257 257 258 258 258 258 258 258 259 259 260 262 263 264 265 266 266 267 267 267 268 268 268 269 269 270 271 272 272 272 271 270 269 267 266 264 262 260 258 256 253 250 247 243 240 238 236 235 235 235 235 235 236 237 238 240 241
247 247 247 248 249 249 250 250 250 251 251 251 251 252 252 252 253 253 253 253 254 254 254 255 255 255 256 256 257 257 257 258 258 258 258 258 258 258 259 259 260 262 263 264 265 266 267 268 268 268 268 268 269 269 269 270 270 271 271 271 270 269 268 266 264 262 260 259 256 254 251 248 245 242 240 238 237 237 236 236 237 237 237 238 239 240
247 247 247 248 248 249 249 250 250 251 251 251 252 252 252 252 253 253 253 254 254 254 254 255 255 255 256 256 256 257 257 258 258 259 259 259 259 259 259 259 260 261 262 263 264 266 267 268 269 269 269 269 269 269 269 269 270 270 270 270 270 269 268 266 264 262 260 259 257 255 253 250 247 244 242 240 239 238 238 238 238 238 238 239 239 240
247 247 247 248 248 248 249 250 250 251 251 251 252 252 252 252 253 253 253 254 254 254 255 255 255 255 256 256 256 257 257 257 258 259 259 259 259 259 259 259 259 260 261 262 263 264 266 267 268 269 269 269 269 269 269 269 269 269 269 269 269 268 268 266 264 262 260 259 257 255 254 252 249 247 244 242 240 239 239 239 239 239 239 239 240 240
247 247 247 248 248 248 249 249 250 250 251 251 252 252 252 252 253 253 253 254 254 254 255 255 255 256 256 256 256 257 257 257 258 258 259 260 260 260 260 260 260 260 260 261 262 263 264 266 267 268 269 270 270 270 269 269 269 269 268 268 268 268 267 266 265 263 261 259 257 255 254 252 251 249 246 244 242 241 240 240 240 240 240 240 240 241
248 248 248 248 248 248 248 249 250 250 251 251 252 252 252 253 253 253 254 254 254 254 255 255 255 256 256 256 256 257 257 257 257 258 259 259 260 260 260 260 260 261 261 261 261 262 263 264 266 267 268 269 270 270 270 270 269 269 268 268 267 267 266 265 264 263 261 259 257 256 254 253 251 250 248 246 244 243 241 240 240 240 240 240 241 241
248 248 248 248 248 248 248 249 249 250 250 251 251 252 252 253 253 253 254 254 254 254 255 255 255 255 256 256 256 257 257 257 257 258 258 259 260 260 261 261 261 262 262 261 261 262 262 263 264 265 267 268 269 269 270 270 269 269 268 268 267 266 266 265 264 263 261 260 258 256 255 253 252 251 250 248 247 245 243 242 241 241 240 241 241 241
249 249 249 248 248 248 249 249 249 250 250 251 251 252 252 252 253 253 254 254 254 254 255 255 255 255 256 256 256 257 257 257 258 258 258 259 260 260 261 261 262 262 262 262 262 262 263 263 263 264 265 266 267 268 269 269 269 269 268 268 267 266 265 264 263 262 261 260 258 257 255 254 253 252 251 250 249 247 246 244 243 242 242 241 241 241
249 249 249 249 249 249 249 249 249 250 250 251 251 252 252 252 253 253 253 254 254 254 255 255 255 256 256 256 256 257 257 258 258 258 258 259 260 260 261 261 262 263 263 263 263 263 263 263 263 264 264 265 266 266 267 268 268 269 268 268 267 266 265 264 263 262 261 259 258 257 256 254 253 252 252 251 250 249 248 247 246 245 244 243 243 242
249 249 249 249 249 249 249 249 250 250 250 251 251 252 252 252 253 253 253 254 254 254 255 255 256 256 256 256 257 257 257 258 258 258 259 259 260 260 261 261 262 263 263 264 264 264 264 264 264 264 264 264 264 265 265 266 267 267 267 267 267 266 265 264 263 262 260 259 258 257 256 255 254 253 252 251 251 250 250 249 249 248 247 246 245 245
249 249 249 250 250 250 250 250 250 250 250 251 251 252 252 252 253 253 253 254 254 255 255 255 256 256 256 256 257 257 257 258 258 259 259 260 260 260 261 261 262 262 263 264 264 265 265 265 265 264 264 264 264 264 264 265 265 265 266 266 266 265 265 264 263 261 260 259 258 257 256 255 254 254 253 252 251 251 250 250 250 250 249 249 248 248
250 250 250 250 250 250 250 250 250 250 251 251 251 252 252 252 253 253 254 254 254 255 255 255 256 256 256 257 257 257 258 258 258 259 259 260 260 261 261 261 262 262 263 263 264 265 265 265 265 265 265 265 264 264 264 264 264 264 264 264 264 264 264 263 262 261 260 259 258 257 256 255 255 254 253 253 252 251 251 250 250 250 250 250 250 250
251 250 250 250 250 250 250 250 250 250 251 251 251 252 252 252 253 253 254 254 254 255 255 255 256 256 257 257 257 258 258 258 258 259 259 260 260 261 261 262 262 262 262 263 264 264 265 265 265 265 265 265 265 264 264 264 263 263 262 262 262 262 262 262 261 261 260 259 258 257 257 256 255 255 254 253 253 252 252 251 251 250 250 250 250 250
251 251 251 251 251 250 250 250 250 250 250 251 251 251 252 252 253 253 254 254 254 255 255 255 256 256 257 257 257 258 258 258 258 259 259 260 260 261 261 262 262 262 262 263 263 264 264 264 265 265 265 265 265 265 264 264 263 263 262 262 261 261 261 260 260 260 260 259 258 258 257 256 256 255 255 254 254 253 253 252 252 251 251 251 250 250
252 251 251 251 251 251 251 251 250 250 250 251 251 251 252 252 252 253 253 254 254 255 255 255 256 256 257 257 257 258 258 258 258 259 259 260 260 261 261 262 262 262 263 263 263 263 264 264 264 264 264 264 264 264 264 264 263 263 262 262 261 261 260 260 259 259 259 259 258 258 257 257 256 256 255 255 254 254 254 253 253 252 252 252 252 251
252 252 252 252 251 251 251 251 251 251 251 251 251 251 251 252 252 253 253 253 254 254 255 255 255 256 256 257 257 258 258 258 258 259 259 259 260 260 261 261 262 262 262 263 263 263 263 264 264 264 264 264 264 264 264 264 263 263 262 262 261 261 260 260 259 259 259 258 258 258 257 257 257 257 256 256 255 255 255 254 254 254 253 253 253 253
252 252 252 252 252 252 251 251 251 251 251 251 251 251 251 251 252 252 252 253 253 254 254 255 255 255 256 256 257 257 258 258 258 258 259 259 259 260 260 261 261 261 262 262 263 263 263 264 264 264 264 264 264 263 263 263 263 263 262 262 261 261 261 260 260 259 259 258 258 258 257 257 257 257 257 257 256 256 256 255 255 255 255 254 254 254
252 252 252 252 252 252 252 251 251 251 251 251 251 251 251 251 251 252 252 252 253 253 254 254 254 255 255 256 256 257 257 257 258 258 258 259 259 259 260 260 260 261 261 262 262 263 263 263 264 264 264 264 264 263 263 262 262 262 262 262 261 261 261 260 260 259 259 259 258 258 258 257 257 257 257 257 257 257 256 256 256 256 256 256 255 255
253 252 252 252 252 252 252 252 251 251 251 251 251 251 251 251 251 251 252 252 252 253 253 254 254 254 255 255 255 256 256 257 257 258 258 258 258 259 259 259 260 260 260 261 261 262 262 263 263 264 264 264 264 264 263 263 262 262 261 261 261 261 261 260 260 260 259 259 259 258 258 258 258 257 257 257 257 257 257 257 257 257 257 257 257 256
253 253 252 252 252 252 252 252 251 251 251 251 251 251 250 251 251 251 251 251 252 252 253 253 253 254 254 254 255 255 256 256 256 257 257 258 258 258 258 259 259 259 260 260 260 261 261 262 262 263 263 263 264 264 264 264 263 262 262 261 261 260 260 260 260 260 260 259 259 259 259 259 258 258 258 258 258 258 258 258 258 258 258 258 258 258
253 253 252 252 252 252 252 252 251 251 251 251 251 250 250 250 250 250 251 251 251 252 252 252 253 253 254 254 254 255 255 255 256 256 257 257 257 258 258 258 258 259 259 259 260 260 260 261 261 261 262 262 263 263 263 263 263 263 263 262 262 261 260 260 260 260 259 259 259 259 259 259 259 259 259 259 259 258 258 258 258 258 258 258 258 258
253 253 252 252 252 252 252 252 251 251 251 251 250 250 250 250 250 250 250 250 251 251 251 252 252 253 253 254 254 254 254 255 255 256 256 256 257 257 257 258 258 258 259 259 259 259 260 260 260 261 261 261 261 262 262 262 262 262 263 263 262 262 261 261 261 260 260 260 259 259 259 259 259 259 259 259 259 259 259 259 259 259 259 259 259 259
252 252 252 252 252 252 252 252 251 251 251 251 250 250 250 250 250 250 250 250 250 251 251 251 252 252 253 253 253 254 254 254 255 255 256 256 256 257 257 257 258 258 258 259 259 259 259 260 260 260 260 260 261 261 261 260 260 261 261 261 262 262 262 262 262 262 261 261 261 260 260 260 260 259 259 259 259 260 260 260 260 260 260 260 260 260
252 252 252 252 252 252 252 251 251 251 251 250 250 250 250 250 250 250 250 250 250 250 251 251 251 252 252 253 253 254 254 254 254 255 255 256 256 256 257 257 257 258 258 258 259 259 259 259 259 260 260 260 260 260 260 260 260 259 259 259 260 261 262 262 262 262 262 262 262 262 262 261 261 261 260 260 260 260 260 260 260 261 261 261 261 261
252 252 252 252 252 251 251 251 251 251 251 250 250 250 250 250 250 250 250 250 250 250 251 251 251 252 252 253 253 253 254 254 254 255 255 255 256 256 256 257 257 257 258 258 258 258 259 259 259 259 259 259 259 259 259 259 259 259 259 259 259 259 259 260 261 261 262 262 262 263 263 263 263 263 263 262 262 262 262 262 261 261 261 261 261 262
251 251 251 251 251 251 251 251 251 251 250 250 250 250 250 250 250 250 250 250 250 250 250 251 251 251 252 252 253 253 253 254 254 254 255 255 255 256 256 256 257 257 257 258 258 258 258 258 259 259 259 259 259 259 259 259 259 259 259 259 258 258 258 259 260 260 261 261 262 262 263 263 263 264 264 264 264 264 264 264 264 264 263 263 263 263
251 251 251 251 251 251 251 251 251 251 250 250 250 250 250 250 250 250 250 250 250 250 250 250 251 251 251 252 252 253 253 254 254 254 255 255 255 255 256 256 256 257 257 257 257 258 258 258 258 258 258 259 259 259 259 259 259 259 259 259 259 258 259 259 259 259 260 260 261 261 262 262 263 263 264 264 265 265 265 265 266 266 266 266 266 265
251 251 251 251 251 251 251 251 251 251 251 250 250 250 250 250 250 250 250 250 250 250 250 250 250 251 251 251 252 252 253 253 254 254 254 255 255 255 255 256 256 256 256 257 257 257 257 258 258 258 258 258 259 259 259 259 259 259 259 259 259 259 259 259 259 259 259 259 260 261 261 262 262 263 263 264 264 265 265 265 266 266 266 266 267 267
251 251 251 251 251 251 251 250 251 251 250 250 250 250 250 250 250 250 250 250 250 250 250 250 250 250 251 251 251 252 252 253 253 254 254 254 255 255 255 255 256 256 256 256 257 257 257 258 258 258 258 258 259 259 259 259 259 259 259 259 259 259 259 259 259 259 259 259 260 260 261 261 262 262 263 264 264 265 265 265 266 266 266 267 267 267
251 251 251 251 251 251 251 250 250 250 250 250 250 250 250 250 250 250 250 250 250 250 250 250 250 250 250 251 251 251 252 252 253 253 254 254 255 255 255 255 256 256 256 256 257 257 257 258 258 258 258 259 259 259 259 259 259 259 259 260 260 260 259 259 259 259 259 259 260 260 260 261 261 262 262 263 264 264 265 265 266 266 267 267 267 267
251 251 251 251 251 251 251 250 250 250 250 250 250 250 250 250 250 250 250 250 250 250 250 250 250 250 250 251 251 251 252 252 252 253 253 254 254 255 255 255 256 256 256 257 257 257 257 258 258 258 259 259 259 259 260 260 260 260 260 260 260 260 260 260 260 260 260 260 260 260 260 261 261 261 262 262 263 264 264 265 266 266 266 267 267 268
251 251 251 251 251 251 251 251 250 251 251 251 251 250 250 250 250 250 250 250 250 250 250 250 250 250 250 251 251 251 251 252 252 253 253 254 254 255 255 255 256 256 257 257 257 257 258 258 258 259 259 259 259 259 260 260 260 260 260 260 260 260 260 261 261 261 261 260 261 261 261 261 261 262 262 262 263 263 264 265 265 266 266 267 267 268
251 251 251 251 251 251 251 251 251 251 251 251 251 250 250 250 250 250 250 250 250 250 250 250 250 250 250 251 251 251 251 252 252 253 253 253 254 254 255 256 256 256 257 257 258 258 258 258 259 259 259 259 259 259 260 260 260 260 261 261 261 261 261 261 261 261 261 261 261 261 262 262 262 262 262 263 263 263 264 264 265 266 266 267 267 267
Height
10518 10520 10522 10524 10525 10527 10528 10530 10532 10534 10535 10537 10539 10541 10542 10545 10546 10547 10549 10551 10553 10554 10556 10558 10560 10562 10563 10564 10565 10567 10568 10569 10570 10571 10572 10572 10573 10574 10575 10575 10576 10577 10577 10578 10579 10580 10581 10582 10582 10583 10584 10585 10587 10587 10589 10589 10590 10590 10590 10590 10591 10592 10591 10592 10592 10592 10592 10593 10594 10596 10599 10600 10600 10600 10599 10600 10601 10602 10604 10605 10607 10608 10609 10611 10614 10615
10512 10514 10516 10517 10519 10520 10521 10524 10526 10528 10529 10530 10532 10535 10536 10539 10540 10542 10544 10545 10547 10549 10550 10552 10554 10555 10557 10557 10559 10560 10562 10563 10564 10565 10565 10566 10567 10567 10568 10569 10570 10570 10570 10572 10573 10574 10575 10576 10577 10577 10578 10579 10580 10580 10582 10582 10582 10583 10583 10584 10584 10584 10584 10584 10584 10584 10584 10585 10586 10588 10591 10593 10593 10593 10593 10594 10595 10597 10599 10600 10601 10602 10604 10605 10607 10610
10507 10509 10510 10511 10513 10514 10515 10517 10519 10522 10522 10524 10526 10528 10530 10532 10534 10535 10537 10539 10541 10543 10545 10546 10547 10549 10550 10551 10552 10554 10555 10557 10558 10559 10560 10560 10560 10561 10562 10562 10563 10564 10564 10565 10567 10568 10569 10570 10571 10572 10572 10572 10572 10574 10575 10575 10576 10577 10576 10577 10577 10577 10577 10577 10577 10576 10576 10577 10578 10580 10584 10585 10586 10587 10588 10589 10591 10592 10594 10595 10595 10596 10597 10599 10601 10604
10501 10503 10503 10505 10507 10509 10509 10510 10513 10515 10516 10518 10520 10522 10524 10525 10527 10529 10531 10533 10535 10537 10539 10540 10541 10542 10544 10545 10546 10547 10549 10550 10552 10553 10554 10554 10555 10555 10555 10556 10557 10557 10558 10559 10560 10562 10563 10565 10565 10565 10565 10565 10565 10566 10567 10568 10569 10569 10569 10570 10570 10570 10570 10570 10569 10568 10568 10569 10570 10572 10575 10577 10578 10579 10581 10583 10585 10587 10589 10590 10590 10591 10592 10593 10595 10597
10495 10497 10497 10499 10502 10502 10503 10505 10507 10509 10510 10512 10514 10515 10517 10519 10520 10522 10525 10527 10529 10531 10532 10534 10535 10537 10537 10539 10540 10541 10542 10544 10545 10546 10547 10548 10549 10549 10549 10550 10550 10550 10552 10552 10554 10555 10557 10559 10559 10560 10560 10559 10559 10559 10560 10560 10560 10561 10562 10562 10563 10564 10563 10562 10562 10561 10560 10560 10562 10565 10567 10569 10570 10572 10574 10576 10578 10580 10581 10582 10584 10585 10586 10587 10589 10590
10489 10490 10491 10494 10495 10496 10497 10500 10501 10503 10504 10506 10508 10509 10511 10513 10515 10517 10519 10521 10523 10524 10526 10527 10529 10530 10532 10532 10534 10535 10536 10537 10539 10540 10540 10542 10542 10543 10543 10544 10544 10544 10545 10546 10547 10549 10550 10552 10554 10554 10554 10554 10553 10553 10553 10554 10554 10554 10554 10555 10555 10555 10555 10555 10554 10554 10553 10553 10555 10557 10560 10562 10564 10566 10569 10570 10572 10574 10574 10575 10577 10578 10579 10580 10581 10583
10482 10484 10485 10487 10489 10490 10492 10494 10495 10497 10499 10500 10502 10504 10505 10507 10509 10510 10512 10514 10516 10518 10520 10521 10523 10524 10525 10527 10527 10529 10530 10531 10532 10533 10534 10535 10536 10537 10537 10537 10538 10538 10539 10539 10540 10542 10544 10545 10547 10548 10549 10549 10548 10547 10547 10547 10547 10547 10547 10547 10548 10548 10548 10548 10547 10547 10547 10547 10549 10550 10554 10556 10559 10560 10563 10565 10566 10568 10569 10570 10570 10572 10572 10574 10574 10575
10475 10477 10479 10481 10482 10484 10485 10487 10489 10490 10493 10494 10495 10497 10499 10500 10502 10504 10505 10507 10510 10512 10514 10515 10517 10518 10519 10520 10522 10523 10524 10525 10525 10527 10528 10529 10530 10530 10531 10531 10532 10532 10532 10533 10534 10535 10537 10538 10539 10540 10541 10542 10543 10543 10542 10542 10542 10542 10541 10541 10541 10541 10541 10541 10542 10542 10540 10540 10542 10545 10548 10551 10553 10555 10557 10559 10560 10562 10562 10564 10565 10566 10567 10567 10569 10569
10467 10470 10472 10474 10475 10477 10479 10480 10482 10485 10487 10489 10490 10492 10493 10494 10496 10498 10499 10501 10503 10505 10507 10509 10510 10511 10512 10514 10515 10517 10517 10519 10519 10520 10521 10522 10523 10524 10525 10525 10526 10526 10527 10527 10527 10529 10530 10531 10532 10532 10533 10534 10536 10537 10537 10537 10537 10536 10536 10535 10535 10535 10535 10537 10537 10536 10535 10535 10537 10540 10543 10545 10548 10549 10551 10553 10554 10555 10557 10558 10559 10560 10561 10562 10562 10564
10460 10462 10464 10466 10469 10470 10472 10474 10475 10478 10481 10482 10484 10485 10487 10489 10490 10492 10493 10494 10496 10498 10500 10502 10504 10504 10506 10508 10510 10511 10512 10512 10513 10514 10515 10515 10516 10517 10518 10519 10520 10520 10520 10521 10522 10522 10524 10524 10525 10525 10525 10527 10528 10529 10530 10530 10530 10530 10530 10530 10531 10531 10532 10532 10532 10532 10531 10532 10534 10535 10537 10539 10542 10544 10546 10547 10549 10550 10551 10552 10553 10554 10555 10555 10557 10557
10453 10455 10457 10459 10461 10464 10465 10467 10469 10471 10475 10476 10477 10479 10481 10483 10484 10485 10487 10487 10489 10491 10494 10495 10497 10498 10500 10502 10503 10505 10505 10506 10507 10507 10509 10509 10510 10510 10512 10512 10514 10514 10514 10515 10515 10517 10518 10519 10518 10518 10519 10519 10521 10522 10523 10523 10524 10524 10524 10525 10527 10528 10529 10529 10529 10528 10527 10527 10527 10528 10530 10533 10535 10538 10540 10542 10543 10544 10545 10545 10547 10547 10549 10549 10550 10550
10445 10447 10450 10452 10454 10456 10459 10460 10462 10465 10468 10470 10471 10472 10474 10476 10477 10479 10480 10481 10482 10485 10487 10488 10490 10492 10494 10495 10497 10498 10500 10500 10501 10502 10502 10502 10503 10504 10505 10506 10507 10508 10508 10509 10509 10510 10512 10513 10512 10512 10512 10512 10514 10515 10516 10517 10517 10517 10518 10519 10520 10522 10522 10523 10523 10522 10522 10522 10522 10524 10525 10527 10529 10531 10533 10534 10535 10537 10538 10539 10540 10541 10542 10542 10543 10544
10437 10440 10442 10444 10446 10449 10451 10453 10455 10458 10460 10462 10464 10465 10467 10469 10471 10474 10474 10475 10476 10478 10480 10481 10483 10485 10487 10489 10490 10492 10494 10495 10495 10496 10497 10497 10497 10497 10498 10499 10500 10501 10502 10502 10503 10504 10506 10507 10507 10506 10506 10506 10507 10508 10510 10510 10511 10512 10512 10513 10514 10514 10515 10515 10515 10516 10517 10517 10518 10519 10520 10522 10523 10524 10525 10527 10528 10529 10530 10532 10533 10534 10535 10536 10537 10537
10429 10432 10434 10436 10439 10440 10443 10445 10448 10450 10452 10454 10456 10458 10460 10462 10465 10467 10468 10469 10470 10471 10473 10475 10475 10477 10479 10482 10484 10485 10487 10488 10489 10490 10491 10491 10491 10491 10492 10492 10494 10495 10496 10496 10496 10497 10499 10500 10501 10501 10500 10500 10500 10502 10503 10504 10505 10505 10506 10507 10507 10508 10509 10509 10510 10510 10511 10512 10512 10513 10514 10515 10517 10519 10519 10520 10522 10522 10523 10524 10525 10527 10528 10529 10530 10530
10422 10424 10427 10429 10430 10432 10435 10438 10440 10442 10444 10446 10449 10451 10454 10456 10458 10460 10461 10462 10463 10465 10467 10468 10469 10470 10472 10474 10476 10479 10480 10482 10483 10484 10485 10485 10485 10486 10486 10486 10487 10488 10490 10490 10490 10490 10492 10494 10495 10495 10495 10495 10495 10495 10495 10497 10498 10499 10500 10500 10501 10502 10502 10503 10504 10505 10505 10506 10507 10507 10508 10509 10511 10512 10514 10515 10515 10516 10517 10517 10518 10519 10520 10522 10523 10524
10414 10417 10419 10420 10422 10425 10427 10430 10433 10435 10436 10439 10442 10444 10446 10448 10450 10452 10454 10455 10456 10458 10460 10461 10462 10463 10464 10466 10469 10471 10474 10475 10476 10477 10479 10479 10480 10480 10481 10480 10480 10481 10482 10484 10484 10485 10486 10488 10489 10490 10490 10490 10489 10489 10489 10490 10491 10492 10494 10495 10495 10496 10497 10497 10498 10499 10499 10500 10501 10502 10502 10503 10504 10506 10507 10509 10510 10510 10510 10510 10512 10512 10514 10514 10515 10516
10407 10410 10412 10413 10415 10417 10419 10422 10425 10427 10429 10432 10434 10437 10439 10440 10442 10444 10447 10448 10449 10451 10454 10454 10455 10456 10457 10459 10461 10464 10467 10468 10469 10470 10472 10474 10474 10475 10476 10475 10474 10474 10475 10476 10477 10478 10480 10481 10482 10483 10484 10484 10484 10484 10484 10484 10484 10485 10487 10489 10490 10490 10491 10492 10492 10493 10494 10494 10495 10495 10497 10497 10498 10499 10501 10502 10503 10504 10504 10504 10505 10505 10507 10508 10509 10510
10399 10402 10404 10405 10407 10409 10411 10414 10417 10419 10421 10424 10427 10429 10430 10432 10434 10437 10439 10440 10442 10444 10445 10447 10448 10449 10450 10451 10453 10455 10459 10462 10462 10463 10465 10467 10467 10469 10471 10471 10470 10469 10469 10469 10470 10471 10472 10474 10475 10476 10477 10479 10479 10479 10479 10478 10478 10479 10480 10482 10484 10485 10485 10486 10486 10487 10488 10489 10489 10489 10490 10492 10492 10494 10494 10495 10497 10497 10497 10497 10498 10499 10500 10501 10502 10503
10391 10394 10396 10398 10400 10402 10404 10407 10409 10411 10414 10416 10419 10420 10422 10424 10427 10429 10430 10432 10434 10436 10438 10439 10441 10442 10444 10444 10445 10447 10452 10454 10455 10455 10458 10459 10460 10462 10465 10465 10465 10464 10463 10463 10463 10464 10465 10466 10467 10469 10470 10472 10473 10474 10474 10473 10473 10472 10473 10474 10476 10478 10479 10480 10480 10481 10482 10482 10483 10484 10484 10485 10487 10488 10489 10489 10490 10490 10491 10491 10492 10492 10493 10494 10495 10495
10382 10385 10389 10390 10392 10394 10397 10399 10400 10402 10405 10408 10410 10413 10415 10416 10419 10420 10422 10424 10427 10429 10430 10432 10434 10435 10436 10437 10439 10440 10444 10447 10447 10447 10449 10451 10452 10455 10457 10459 10459 10459 10458 10457 10457 10457 10458 10459 10460 10461 10463 10464 10466 10467 10467 10468 10467 10467 10467 10467 10469 10470 10472 10474 10474 10475 10475 10476 10477 10477 10478 10479 10480 10481 10482 10483 10484 10484 10485 10485 10485 10485 10486 10487 10487 10488
10374 10377 10380 10383 10385 10387 10389 10390 10392 10395 10398 10400 10403 10405 10407 10408 10410 10413 10414 10416 10419 10421 10423 10425 10426 10427 10429 10430 10432 10434 10437 10439 10439 10439 10440 10442 10445 10447 10449 10452 10453 10453 10453 10452 10452 10452 10452 10452 10452 10453 10455 10456 10458 10460 10461 10462 10462 10462 10462 10461 10462 10463 10465 10467 10468 10469 10469 10470 10470 10471 10472 10472 10472 10474 10474 10475 10477 10478 10479 10479 10479 10479 10480 10480 10480 10481
10367 10369 10371 10375 10378 10380 10380 10382 10384 10387 10390 10392 10395 10397 10398 10400 10402 10405 10406 10409 10411 10414 10415 10417 10418 10419 10422 10424 10425 10426 10429 10432 10432 10431 10432 10435 10436 10437 10440 10444 10446 10447 10447 10447 10447 10447 10447 10446 10445 10445 10447 10448 10450 10452 10454 10455 10455 10455 10455 10455 10455 10455 10457 10459 10460 10462 10463 10464 10464 10464 10465 10465 10466 10466 10467 10467 10469 10470 10471 10472 10472 10473 10473 10474 10474 10474
10358 10360 10363 10367 10370 10372 10373 10375 10377 10380 10382 10384 10386 10388 10389 10392 10395 10397 10398 10401 10404 10405 10407 10409 10410 10412 10415 10416 10417 10419 10421 10424 10424 10424 10425 10427 10427 10427 10432 10436 10438 10439 10439 10440 10442 10443 10443 10442 10440 10440 10440 10440 10441 10443 10445 10447 10448 10449 10449 10449 10449 10449 10450 10451 10453 10455 10456 10457 10457 10457 10458 10459 10459 10459 10460 10460 10460 10462 10463 10464 10465 10465 10466 10466 10467 10467
10349 10352 10355 10359 10362 10364 10365 10368 10370 10372 10374 10376 10378 10380 10382 10385 10387 10389 10390 10394 10396 10397 10399 10401 10404 10405 10407 10407 10409 10410 10412 10415 10417 10418 10419 10419 10418 10419 10423 10427 10429 10430 10430 10433 10435 10437 10438 10437 10436 10435 10435 10434 10434 10435 10436 10438 10439 10441 10442 10442 10443 10443 10443 10444 10445 10447 10449 10450 10450 10451 10451 10451 10452 10452 10452 10453 10454 10454 10454 10455 10455 10457 10457 10458 10459 10459
10340 10343 10346 10349 10352 10355 10358 10360 10362 10364 10366 10368 10370 10372 10374 10377 10379 10381 10383 10385 10388 10389 10391 10394 10395 10397 10397 10399 10401 10403 10404 10406 10409 10411 10412 10411 10411 10412 10415 10419 10420 10421 10422 10424 10427 10430 10431 10431 10431 10431 10431 10430 10429 10428 10428 10429 10430 10432 10434 10435 10435 10436 10437 10437 10438 10439 10440 10442 10443 10444 10444 10444 10445 10445 10445 10445 10446 10446 10446 10446 10447 10447 10448 10449 10449 10450
10332 10335 10337 10340 10344 10347 10350 10352 10354 10356 10359 10360 10362 10364 10366 10369 10371 10373 10375 10377 10379 10380 10383 10385 10386 10387 10389 10392 10394 10395 10395 10398 10402 10404 10404 10404 10405 10405 10407 10410 10412 10413 10414 10415 10418 10421 10423 10424 10425 10426 10427 10425 10424 10423 10422 10422 10422 10424 10425 10427 10428 10429 10430 10430 10431 10432 10432 10434 10435 10435 10437 10437 10437 10438 10438 10439 10439 10439 10439 10438 10438 10439 10439 10439 10440 10440
10323 10325 10329 10332 10335 10338 10341 10344 10346 10349 10350 10352 10354 10356 10358 10360 10363 10365 10367 10368 10370 10372 10375 10377 10377 10379 10381 10384 10386 10387 10387 10390 10393 10395 10395 10397 10398 10399 10399 10402 10404 10405 10405 10407 10409 10411 10414 10415 10417 10419 10420 10420 10420 10419 10417 10416 10415 10415 10417 10418 10419 10421 10422 10423 10424 10425 10425 10426 10427 10427 10429 10429 10430 10430 10430 10431 10431 10431 10431 10430 10430 10430 10430 10430 10430 10430
10314 10317 10320 10323 10326 10329 10332 10335 10338 10340 10342 10344 10346 10348 10350 10353 10355 10356 10357 10359 10362 10365 10367 10368 10369 10370 10373 10376 10377 10378 10380 10383 10385 10386 10387 10390 10391 10390 10390 10394 10397 10399 10398 10398 10399 10402 10404 10405 10407 10409 10412 10413 10414 10414 10413 10411 10410 10410 10410 10410 10411 10412 10414 10415 10416 10417 10418 10419 10419 10419 10420 10420 10422 10422 10423 10423 10424 10424 10424 10424 10423 10423 10422 10422 10422 10422
10305 10309 10311 10314 10317 10320 10324 10327 10329 10332 10334 10336 10338 10340 10342 10344 10346 10347 10348 10350 10354 10358 10359 10359 10360 10362 10365 10367 10369 10371 10374 10375 10376 10377 10380 10383 10383 10382 10382 10387 10390 10391 10390 10391 10392 10393 10394 10395 10397 10399 10402 10404 10405 10406 10406 10406 10405 10405 10404 10404 10404 10404 10405 10407 10408 10409 10410 10410 10411 10411 10412 10412 10413 10414 10414 10415 10415 10415 10415 10416 10416 10416 10416 10416 10415 10415
10296 10299 10302 10305 10308 10311 10314 10318 10320 10324 10326 10328 10330 10332 10334 10336 10338 10339 10340 10343 10347 10349 10349 10349 10351 10354 10357 10359 10360 10363 10365 10365 10367 10370 10374 10375 10374 10373 10374 10379 10382 10382 10382 10384 10385 10385 10384 10385 10387 10390 10393 10394 10396 10397 10398 10399 10399 10399 10398 10398 10397 10397 10397 10398 10399 10400 10401 10402 10402 10403 10404 10404 10405 10405 10405 10406 10406 10407 10407 10407 10407 10408 10409 10409 10409 10409
10286 10290 10293 10295 10299 10302 10305 10309 10312 10315 10317 10320 10322 10324 10325 10328 10329 10331 10332 10335 10338 10340 10340 10342 10344 10346 10348 10350 10352 10354 10355 10356 10359 10363 10367 10367 10365 10364 10367 10371 10372 10372 10374 10377 10378 10377 10375 10376 10378 10381 10383 10385 10386 10388 10389 10390 10391 10392 10392 10392 10391 10390 10390 10390 10391 10392 10393 10394 10394 10395 10395 10395 10396 10397 10397 10397 10398 10398 10399 10399 10399 10399 10399 10400 10400 10400
10277 10280 10284 10286 10289 10293 10297 10300 10303 10306 10309 10311 10314 10315 10317 10319 10321 10323 10325 10327 10329 10331 10332 10334 10336 10338 10339 10342 10344 10345 10346 10348 10352 10355 10359 10359 10357 10357 10359 10362 10363 10363 10365 10368 10369 10369 10368 10368 10370 10372 10374 10375 10377 10378 10379 10380 10382 10383 10384 10384 10384 10384 10384 10384 10384 10384 10384 10385 10385 10386 10387 10387 10388 10389 10389 10389 10390 10390 10390 10390 10390 10390 10390 10390 10390 10390
10267 10271 10274 10277 10280 10284 10287 10290 10294 10297 10300 10302 10304 10307 10309 10310 10313 10315 10316 10318 10320 10322 10324 10326 10328 10329 10331 10333 10335 10336 10337 10340 10343 10347 10349 10350 10350 10350 10351 10354 10354 10354 10356 10358 10360 10360 10360 10360 10362 10364 10365 10367 10368 10369 10370 10372 10372 10374 10375 10376 10376 10376 10376 10377 10377 10377 10377 10377 10377 10377 10378 10379 10379 10380 10380 10381 10381 10382 10382 10382 10382 10382 10382 10382 10382 10381
10258 10262 10264 10267 10271 10274 10278 10281 10284 10288 10290 10293 10295 10297 10300 10302 10304 10306 10308 10310 10312 10314 10316 10317 10319 10321 10323 10325 10327 10328 10329 10331 10334 10337 10340 10342 10342 10342 10343 10345 10345 10346 10347 10349 10350 10350 10351 10352 10353 10355 10357 10358 10360 10361 10362 10363 10364 10364 10365 10367 10367 10368 10368 10369 10370 10370 10369 10369 10370 10370 10370 10370 10371 10372 10372 10372 10373 10373 10374 10374 10373 10373 10373 10373 10373 10372
10249 10252 10255 10258 10262 10265 10268 10272 10275 10279 10281 10284 10286 10289 10291 10293 10295 10297 10300 10302 10304 10305 10307 10309 10311 10313 10315 10317 10319 10320 10321 10322 10325 10328 10331 10333 10333 10334 10335 10337 10337 10337 10339 10340 10340 10341 10342 10343 10344 10345 10347 10349 10351 10353 10354 10355 10355 10356 10357 10358 10359 10359 10360 10361 10362 10362 10362 10362 10362 10362 10362 10362 10362 10363 10363 10364 10364 10364 10365 10365 10365 10365 10364 10364 10364 10364
10239 10242 10245 10249 10252 10255 10259 10262 10265 10269 10272 10274 10277 10279 10282 10284 10287 10289 10291 10293 10295 10297 10299 10300 10302 10304 10307 10309 10310 10311 10312 10314 10316 10319 10322 10324 10324 10325 10327 10328 10328 10329 10331 10332 10332 10332 10334 10334 10335 10336 10337 10339 10341 10343 10345 10347 10349 10349 10349 10350 10350 10350 10351 10352 10353 10354 10354 10354 10354 10354 10354 10354 10355 10355 10355 10355 10355 10356 10356 10356 10356 10356 10355 10355 10355 10355
10230 10234 10236 10240 10244 10247 10250 10253 10256 10259 10262 10265 10267 10270 10272 10275 10278 10280 10282 10284 10286 10288 10290 10292 10294 10295 10298 10300 10302 10303 10304 10305 10308 10311 10312 10314 10315 10317 10319 10319 10319 10321 10324 10324 10324 10324 10326 10326 10327 10327 10329 10329 10330 10332 10334 10338 10341 10342 10342 10341 10342 10342 10343 10343 10344 10345 10345 10345 10345 10345 10345 10346 10347 10347 10346 10347 10347 10347 10347 10347 10347 10347 10347 10346 10346 10346
10222 10225 10228 10231 10235 10238 10242 10244 10247 10250 10253 10255 10258 10260 10264 10266 10269 10271 10273 10275 10277 10279 10281 10282 10285 10287 10289 10291 10293 10295 10296 10298 10300 10302 10303 10304 10306 10308 10309 10310 10311 10313 10315 10315 10315 10317 10319 10319 10319 10319 10320 10320 10320 10322 10324 10327 10330 10332 10332 10333 10334 10335 10335 10335 10335 10336 10337 10337 10337 10337 10337 10338 10338 10338 10338 10338 10339 10339 10339 10338 10338 10337 10337 10337 10337 10337
10212 10215 10219 10223 10227 10230 10233 10235 10238 10240 10244 10246 10249 10252 10254 10257 10259 10262 10264 10266 10269 10270 10272 10274 10276 10278 10280 10282 10284 10286 10288 10290 10291 10293 10294 10296 10298 10299 10300 10301 10302 10304 10305 10307 10308 10309 10310 10311 10311 10311 10312 10312 10314 10314 10315 10317 10319 10321 10322 10324 10325 10327 10326 10326 10327 10328 10328 10328 10328 10329 10329 10329 10329 10329 10329 10329 10329 10329 10329 10329 10329 10329 10329 10329 10328 10327
10203 10207 10210 10214 10218 10222 10224 10227 10229 10232 10234 10237 10240 10242 10245 10247 10250 10252 10255 10257 10259 10262 10264 10265 10267 10269 10271 10274 10275 10277 10279 10281 10283 10284 10286 10288 10289 10290 10292 10293 10294 10295 10297 10299 10300 10301 10302 10303 10303 10304 10304 10305 10306 10307 10307 10309 10310 10311 10312 10314 10315 10315 10315 10316 10318 10319 10319 10320 10320 10320 10320 10320 10320 10320 10320 10320 10320 10320 10320 10319 10319 10319 10320 10319 10319 10318
10195 10198 10202 10205 10209 10213 10216 10218 10220 10223 10225 10228 10230 10233 10235 10238 10240 10243 10245 10249 10251 10253 10255 10257 10259 10261 10263 10265 10267 10269 10271 10273 10274 10276 10278 10279 10280 10282 10284 10285 10286 10287 10289 10290 10292 10292 10294 10295 10295 10295 10296 10297 10298 10299 10300 10301 10302 10303 10304 10305 10305 10304 10304 10307 10309 10309 10309 10310 10311 10312 10312 10312 10312 10312 10311 10310 10310 10310 10310 10310 10310 10310 10310 10310 10310 10309
10187 10190 10193 10197 10200 10204 10207 10209 10211 10214 10216 10219 10221 10224 10226 10229 10232 10235 10237 10240 10242 10245 10247 10249 10251 10253 10255 10257 10259 10260 10262 10264 10266 10268 10269 10271 10272 10274 10275 10277 10278 10279 10280 10282 10284 10284 10285 10286 10287 10288 10288 10289 10290 10290 10291 10292 10294 10295 10297 10297 10296 10295 10297 10299 10299 10299 10299 10300 10301 10302 10302 10302 10302 10302 10302 10302 10302 10302 10302 10302 10302 10302 10301 10300 10300 10300
10179 10182 10185 10189 10192 10195 10197 10200 10202 10205 10207 10210 10212 10215 10217 10220 10224 10227 10229 10232 10234 10236 10239 10241 10243 10245 10247 10249 10250 10252 10254 10256 10258 10260 10262 10263 10265 10266 10268 10269 10270 10271 10273 10274 10275 10276 10277 10278 10279 10280 10280 10280 10281 10282 10282 10283 10284 10287 10289 10289 10289 10290 10291 10290 10289 10289 10291 10292 10292 10292 10292 10292 10292 10291 10291 10292 10292 10292 10292 10293 10294 10293 10292 10292 10291 10290
10170 10174 10177 10181 10184 10187 10189 10192 10194 10195 10198 10201 10204 10207 10209 10213 10216 10219 10221 10224 10225 10228 10230 10233 10235 10237 10239 10240 10242 10244 10246 10248 10250 10252 10254 10255 10257 10259 10260 10261 10262 10264 10265 10266 10267 10267 10268 10270 10270 10271 10270 10272 10274 10274 10274 10274 10276 10278 10279 10280 10281 10282 10283 10281 10280 10282 10285 10284 10283 10282 10283 10284 10283 10282 10282 10282 10282 10282 10282 10282 10282 10282 10282 10282 10282 10281
10163 10167 10170 10173 10176 10179 10181 10183 10185 10187 10190 10193 10195 10199 10202 10205 10208 10210 10213 10215 10217 10220 10222 10225 10227 10229 10231 10232 10234 10235 10238 10240 10242 10244 10245 10247 10249 10250 10252 10253 10254 10255 10257 10258 10259 10259 10260 10261 10262 10262 10262 10264 10265 10266 10265 10266 10267 10269 10270 10270 10272 10274 10274 10273 10274 10276 10278 10276 10274 10274 10275 10275 10275 10275 10275 10274 10274 10273 10273 10273 10273 10272 10272 10271 10271 10270
10155 10159 10162 10165 10168 10170 10173 10175 10177 10180 10182 10185 10187 10190 10194 10197 10200 10202 10204 10207 10209 10212 10214 10217 10219 10221 10223 10224 10225 10228 10230 10232 10234 10235 10237 10239 10240 10242 10243 10244 10245 10247 10248 10249 10250 10250 10252 10253 10253 10254 10255 10257 10257 10257 10257 10258 10259 10260 10260 10262 10263 10264 10265 10265 10266 10268 10268 10267 10267 10267 10267 10267 10268 10267 10267 10265 10264 10264 10264 10264 10264 10264 10262 10262 10261 10260
10147 10150 10154 10157 10160 10162 10165 10167 10170 10172 10174 10177 10179 10182 10185 10189 10191 10194 10196 10199 10201 10204 10206 10209 10211 10213 10214 10215 10218 10221 10223 10224 10225 10227 10229 10230 10232 10233 10235 10236 10237 10239 10240 10241 10242 10242 10244 10244 10245 10246 10247 10249 10249 10249 10249 10250 10251 10252 10252 10252 10254 10255 10257 10257 10257 10258 10259 10260 10260 10260 10260 10260 10260 10260 10259 10257 10255 10255 10255 10255 10254 10254 10254 10252 10252 10250
10140 10143 10146 10149 10152 10155 10157 10160 10162 10165 10167 10169 10171 10174 10177 10180 10183 10185 10188 10190 10193 10195 10198 10200 10203 10205 10205 10208 10210 10213 10214 10215 10217 10219 10221 10222 10224 10225 10226 10227 10229 10230 10232 10234 10234 10235 10235 10236 10237 10238 10239 10240 10240 10240 10240 10242 10243 10244 10243 10244 10245 10247 10247 10247 10248 10249 10251 10252 10252 10252 10252 10253 10253 10252 10250 10249 10249 10248 10247 10245 10244 10244 10244 10244 10242 10241
10132 10136 10139 10142 10145 10147 10149 10152 10155 10157 10159 10162 10164 10167 10170 10172 10175 10178 10180 10182 10185 10187 10190 10192 10194 10196 10198 10200 10202 10205 10206 10208 10210 10212 10213 10215 10216 10217 10219 10220 10221 10223 10224 10225 10226 10227 10228 10229 10229 10230 10231 10232 10232 10232 10232 10232 10234 10235 10235 10235 10237 10237 10238 10238 10239 10240 10243 10244 10244 10244 10244 10245 10245 10244 10243 10243 10242 10240 10238 10237 10235 10235 10234 10233 10232 10232
10125 10129 10131 10135 10137 10140 10142 10145 10148 10150 10152 10154 10157 10160 10162 10165 10167 10170 10172 10174 10177 10179 10182 10184 10186 10188 10190 10192 10195 10197 10199 10200 10202 10204 10205 10207 10209 10210 10211 10212 10214 10215 10217 10218 10219 10219 10220 10220 10221 10222 10222 10224 10224 10224 10224 10224 10224 10225 10227 10227 10228 10229 10229 10229 10230 10231 10233 10234 10235 10235 10235 10236 10236 10236 10237 10237 10235 10233 10230 10229 10227 10226 10224 10223 10223 10223
10118 10121 10125 10128 10130 10133 10135 10138 10141 10143 10145 10147 10150 10152 10155 10157 10160 10162 10164 10167 10169 10171 10173 10175 10178 10180 10183 10185 10187 10189 10192 10194 10195 10197 10198 10200 10201 10203 10204 10205 10206 10208 10209 10210 10210 10212 10212 10213 10213 10213 10214 10215 10216 10216 10215 10215 10215 10217 10218 10219 10219 10219 10220 10220 10221 10222 10224 10225 10225 10226 10227 10227 10228 10228 10229 10229 10228 10226 10224 10222 10219 10217 10214 10214 10214 10214